Location: Emory University Observatory
(33.7903°N, 84.3267°W)
Time: 03:50:05
(UTC-04:00)

ISS - Pass Details

Date: 11 October 2017
Orbit: 400 x 408 km, 51.6° (Epoch: 24 October)

Event Time Altitude Azimuth Distance (km) Brightness Sun altitude
Rises 20:26:21 0° 328° (NNW) 2,325 0.5 -17.1°
Reaches altitude 10° 20:29:04 10° 353° (N) 1,464 -0.9 -17.6°
Enters shadow 20:30:23 14° 15° (NNE) 1,223 -1.5 -17.9°
